Hourly Data Report for September 25, 2022

KUGAARUK CLIMATE
NUNAVUT
Current Station Operator: ECCC - MSC

68°32'15.060" N
89°47'47.020" W
15.80 m
2303094
71407
NBB

Download Data

Hourly Data (September 2022)
Hourly Data Report for September 25, 2022
TIME
LST
Temp Definition
°C
Dew Point Definition
°C
Rel Hum Definition
%
Precip. Amount Definition
mm

Wind Dir Definition
10's deg

Wind Spd Definition
km/h
Visibility Definition
km
Stn Press Definition
kPa
Hmdx Definition


Wind Chill Definition


Weather Definition


00:00 2.3 1.3 93 0.0 22 21   99.32     LegendNANA
01:00 1.8 0.9 94 0.0 23 21   99.43     LegendNANA
02:00 1.0 0.3 95 0.0 24 23   99.51     LegendNANA
03:00 1.1 0.5 96 0.5 26 16   99.63     LegendNANA
04:00 0.8 0.3 97 0.0 33 2   99.77     LegendNANA
05:00 0.3 -0.4 95 0.0 33 18   99.85     LegendNANA
06:00 0.5 -1.5 86 0.0 32 18   99.97     LegendNANA
07:00 0.2 -2.3 84 0.0 32 21   100.07     LegendNANA
08:00 0.0 -2.5 83 0.0 33 16   100.16   -5 LegendNANA
09:00 0.3 -1.7 86 0.0 32 13   100.25     LegendNANA
10:00 -0.4 -2.1 88 0.0 29 20   100.34   -6 LegendNANA
11:00 -0.2 -3.6 78 0.2 29 20   100.40   -5 LegendNANA
12:00 -0.6 -4.2 77 0.0 30 21   100.48   -6 LegendNANA
13:00 -1.3 -4.5 79 0.0 30 23   100.57   -7 LegendNANA
14:00 -1.7 -4.8 79 0.0 30 22   100.65   -8 LegendNANA
15:00 -2.0 -5.7 75 0.0 29 22   100.73   -8 LegendNANA
16:00 -1.9 -5.8 74 0.0 31 23   100.77   -8 LegendNANA
17:00 -1.6 -6.2 71 0.0 31 23   100.80   -8 LegendNANA
18:00 -1.1 -5.2 73 0.0 30 20   100.80   -7 LegendNANA
19:00 -1.3 -4.9 77 0.0 29 20   100.81   -7 LegendNANA
20:00 -1.1 -4.1 80 0.0 29 22   100.78   -7 LegendNANA
21:00 -1.0 -4.2 79 0.0 28 22   100.79   -7 LegendNANA
22:00 -1.1 -3.5 84 0.0 28 26   100.81   -7 LegendNANA
23:00 -1.1 -3.2 86 0.0 27 24   100.83   -7 LegendNANA

Notes on Data Quality.

Legend

  • E = Estimated
  • M = Missing
  • NA = Not Available*
  • [empty] = Indicates an unobserved value
Date modified: